Location: Unspecified
(0.0000°N, 0.0000°E)
Time: 09:01:41
(UTC+02:00)

Ariane H10+ - Visible Passes

Search period start: 30 July 2014 00:00
Search period end: 09 August 2014 00:00
Orbit: 290 x 31907 km, 7.1° (Epoch: 28 July)

Date Brightness Start Highest point End Pass type
(mag) Time Alt. Az. Time Alt. Az. Time Alt. Az.
30 Jul 5.4 12:54:57 10° W 21:11:47 65° SSW 21:16:45 23° ESE visible
31 Jul 6.5 06:58:25 16° W 07:09:59 79° N 15:34:20 10° E visible
02 Aug 5.3 05:32:48 67° WNW 05:34:34 81° N 13:54:18 10° E visible
04 Aug 6.4 04:06:56 36° E 04:06:56 36° E 04:24:48 10° E visible
04 Aug 10.8 08:23:17 10° E 10:40:46 19° E 11:54:21 10° E visible
04 Aug 4.8 22:02:10 10° W 22:21:37 48° SSW 22:21:37 48° SSW visible
06 Aug 5.6 12:31:19 10° W 20:49:12 65° SSW 20:55:21 15° ESE visible
07 Aug 6.3 06:37:02 24° W 06:46:49 77° N 15:11:02 10° E visible
